TimeCET,TemperatureF,Dew PointF,Humidity,Sea Level PressureIn,VisibilityMPH,Wind Direction,Wind SpeedMPH,Gust SpeedMPH,PrecipitationIn,Events,Conditions,WindDirDegrees,DateUTC
12:55 AM,66.2,55.4,68,30.09,6.2,SW,4.6,-,N/A,,Partly Cloudy,230,2012-11-13 23:55:00
1:00 AM,67,56,58,30.12,6,SW,4.6,,,,Scattered Clouds,230,2012-11-14 00:00:00
1:55 AM,66.2,53.6,64,30.09,6.2,WSW,8.1,-,N/A,,Partly Cloudy,240,2012-11-14 00:55:00
2:55 AM,66.2,59.0,78,30.09,6.2,ESE,1.2,-,N/A,,Partly Cloudy,120,2012-11-14 01:55:00
3:55 AM,64.4,59.0,83,30.09,6.2,NW,1.2,-,N/A,,Partly Cloudy,320,2012-11-14 02:55:00
4:55 AM,62.6,59.0,88,30.09,6.2,Calm,Calm,-,N/A,,Partly Cloudy,0,2012-11-14 03:55:00
5:55 AM,62.6,57.2,82,30.09,6.2,Calm,Calm,-,N/A,,Partly Cloudy,0,2012-11-14 04:55:00
6:55 AM,62.6,59.0,88,30.09,6.2,Calm,Calm,-,N/A,,Partly Cloudy,0,2012-11-14 05:55:00
7:00 AM,62,58,84,30.12,6,Calm,Calm,,,,Scattered Clouds,,2012-11-14 06:00:00
7:55 AM,62.6,57.2,82,30.09,6.2,Calm,Calm,-,N/A,,Partly Cloudy,0,2012-11-14 06:55:00
8:55 AM,66.2,55.4,68,30.09,6.2,East,2.3,-,N/A,,Partly Cloudy,80,2012-11-14 07:55:00
9:55 AM,69.8,53.6,56,30.06,6.2,NE,3.5,-,N/A,,Partly Cloudy,50,2012-11-14 08:55:00
10:55 AM,71.6,53.6,53,30.06,-9999.0,ENE,6.9,-,N/A,,Clear,60,2012-11-14 09:55:00
11:55 AM,71.6,53.6,53,30.06,-9999.0,East,3.5,-,N/A,,Clear,80,2012-11-14 10:55:00
12:55 PM,71.6,53.6,53,30.06,6.2,SSW,4.6,-,N/A,,Partly Cloudy,210,2012-11-14 11:55:00
1:00 PM,72,53,40,30.07,12,SSW,4.6,,,,Scattered Clouds,210,2012-11-14 12:00:00
1:55 PM,73.4,51.8,47,30.04,6.2,SW,6.9,-,N/A,,Partly Cloudy,220,2012-11-14 12:55:00
2:55 PM,71.6,50.0,46,30.04,6.2,WSW,8.1,-,N/A,,Partly Cloudy,240,2012-11-14 13:55:00
3:55 PM,71.6,51.8,50,30.04,6.2,SSW,2.3,-,N/A,,Partly Cloudy,210,2012-11-14 14:55:00
4:55 PM,69.8,53.6,56,30.06,6.2,SSE,2.3,-,N/A,,Partly Cloudy,150,2012-11-14 15:55:00
5:55 PM,68.0,55.4,64,30.06,6.2,Calm,Calm,-,N/A,,Partly Cloudy,0,2012-11-14 16:55:00
6:55 PM,66.2,55.4,68,30.06,-9999.0,Calm,Calm,-,N/A,,Clear,0,2012-11-14 17:55:00
7:00 PM,66,55,59,30.06,12,Calm,Calm,,,,,,2012-11-14 18:00:00
7:55 PM,64.4,57.2,77,30.04,-9999.0,NW,1.2,-,N/A,,Clear,320,2012-11-14 18:55:00
8:55 PM,64.4,57.2,77,30.04,6.2,Calm,Calm,-,N/A,,Partly Cloudy,0,2012-11-14 19:55:00
9:55 PM,62.6,57.2,82,30.06,6.2,North,2.3,-,N/A,,Partly Cloudy,350,2012-11-14 20:55:00
10:55 PM,62.6,55.4,77,30.04,6.2,North,1.2,-,N/A,,Partly Cloudy,360,2012-11-14 21:55:00
11:55 PM,62.6,55.4,77,30.04,6.2,Calm,Calm,-,N/A,,Partly Cloudy,0,2012-11-14 22:55:00